Showing default

BADR 7, 41029

Orbit data source: Space-Track

BADR 7, 41029 is a payload satellite owned by Arabsat (SA) in GEO that was launched on Tue, 10 Nov 2015 UTC via an ARIANE 5ECA launch vehicle from the French Guiana (FRGUI). Payload-class satellites include a variety of spacecraft equipped with specific instruments for various scientific and technological missions. These include communications satellites like Starlink; space stations such as the ISS; scientific satellites like the Hubble; Earth observation satellites from companies like Planet Labs, Umbra, and HawkEye 360; GPS; miniature CubeSats for education and research; and military/defense satellites.

Not visible in the next 10 days
Identifier
41029, 2015-065B
Orbit
GEO
Last TLE update
10 hours ago
Origin
Manufacturer
ADS/Bremen
Mission
Operational Commercial Communications
Bus & Motor
EUROSTAR 3000LS, R-4D?
Mass
5,799 kg wet, ~3,000 kg dry
Launch date (UTC)
2015-11-10 (10 years ago)
Launch vehicle
ARIANE 5ECA
Launch site
French Guiana (FRGUI)
Object type
Payload
Rocket body
Debris
Shape & HBR
Box + 2 Pan, 30.8 m
Radar Cross Section
30.523 m², Large (>1 m²)

Expand to show TLE details & history

TLE from 10 hours ago
0 BADR 7
1 41029U 15065B   25187.56933277  .00000162  00000-0  00000-0 0  9997
2 41029   0.0444 201.7891 0003851   2.5268 311.4126  1.00270462 35309
Epoch: 2025-07-06T13:39Z
TLE epoch observation values (Epoch: 2025-07-06T13:39:50.351Z)
Latitude
-0.00481°
Longitude
25.94616°
Altitude
35,775.792 km
Speed
3.075 km/s
True Right ascension
10h 22m 47s
True Declination
0° 00' 17"
Sunlit
Object was in daylight at epoch
Visualization orbit readout
Latitude
-0.01153°
Longitude
178.54535°
Altitude
35,790.262 km
Speed
3.074 km/s
Apparent Right ascension
20h 51m 46s
Apparent Declination
-5° 07' 07"
Sunlit
Object is in daylight
Visualization observer readout
Local Sidereal Time
11:48:37
Azimuth
60.709° ENE
Elevation
-37.213°
Doppler factor
1
Orbital elements
Apogee altitude
35,804.274 km
Perigee altitude
35,771.798 km
Semi-major axis
42,166.173 km
Eccentricity
0.00039
Inclination
0.0444°
RAAN
201.7891°
Arg. of periapsis
2.5268°
True anomaly
Unknown
Mean anomaly
311.4126°
Eccentric anomaly
Unknown
Mean motion
0.25067 °/min
Orbital period
1,436.17 mins
BSTAR
0
Loading historical data...
41029 neighbors
Loading maneuver chart data...
Loading SW <> Apogee altitude chart data...
Loading historical data...
Loading historical data...
Loading historical data...
Loading historical data...
Loading historical data...
Loading historical data...
Loading historical data...
Other satellites on launch #65 in the year 2015 (2015-11-10 UTC)

BADR 7 Visibility

Observer location: undefined°, undefined°

BADR 7 is likely not visible in the next few days
Span
Click to sort rows by Start time (UTC) header in descending order
Start Az.
Max El. time (UTC)
Max El. Az.
Max El.
End time (UTC)
End Az.
|